Miscellaneous Local Product
Issued by NWS Hastings, NE

Home | Current Version | Previous Version | Text Only | Print | Product List | Glossary Off
Versions: 1 2 3 4 5 6 7 8 9 10 11 12 13 14 15 16 17 18 19 20 21 22 23 24 25 26 27 28 29 30 31 32 33 34 35 36 37 38 39 40 41 42 43 44 45 46 47 48 49 50

000
AXUS43 KGID 280502
MISGRI

GID CWA HOURLY WEATHER ROUNDUP
NATIONAL WEATHER SERVICE HASTINGS NE
1100 PM CST TUE JAN 27 2015

NOTE: "FAIR" INDICATES FEW OR NO CLOUDS BELOW 12,000 FEET WITH NO
SIGNIFICANT WEATHER AND/OR OBSTRUCTIONS TO VISIBILITY.

...SOUTH CENTRAL NEBRASKA...

CITY           SKY/WX    TMP DP  RH WIND       PRES   REMARKS
GRAND ISLAND   CLEAR     41  31  67 SE10      29.92F
HASTINGS       CLEAR     42  30  62 SE8       29.91F
KEARNEY        CLEAR     41  28  60 S3        29.91S
ORD            CLEAR     38  30  73 CALM      29.90S
YORK           CLEAR     41  32  70 SE13      29.94S
AURORA         CLEAR     36  30  79 SE9       29.92F WCI  29
LEXINGTON      PTCLDY    35  29  79 E3        29.90F
HOLDREGE       PTCLDY    40  29  65 S6        29.90F
HEBRON         PTCLDY    41  31  67 E5        29.93S

...NEBRASKA PANHANDLE...

CITY           SKY/WX    TMP DP  RH WIND       PRES   REMARKS
CHADRON        CLEAR     33  27  78 CALM      29.89F
ALLIANCE       CLEAR     34  27  75 W3        29.93F
SCOTTSBLUFF      N/A    N/A N/A N/A MISG      29.95F
SIDNEY         PTCLDY    37  28  70 NW12      29.96F WCI  29

...WESTERN AND NORTH CENTRAL NEBRASKA...

CITY           SKY/WX    TMP DP  RH WIND       PRES   REMARKS
VALENTINE      CLOUDY    37  31  78 W7        29.86S WCI  32
AINSWORTH      PTCLDY    41  31  68 S5        29.85F
ONEILL         PTCLDY    42  34  75 S12       29.88F
BROKEN BOW     PTCLDY    35  28  75 CALM      29.90S
IMPERIAL       PTCLDY    39  27  62 SW3       29.91F
NORTH PLATTE   CLEAR     30  25  81 CALM      29.90F
MCCOOK         PTCLDY    44  29  55 CALM      29.90S

...EASTERN NEBRASKA...

CITY           SKY/WX    TMP DP  RH WIND       PRES   REMARKS
NORFOLK        PTCLDY    40  31  70 SE9       29.93F WCI  34
SO SIOUX CITY  CLEAR     32  28  85 SE10      29.97F WCI  24
TEKAMAH        CLEAR     36  29  75 SE13      29.99F WCI  27
COLUMBUS       CLEAR     45  28  53 SE10      29.96F
ALBION         CLEAR     36  29  77 SE3       29.92F
OMAHA EPPLEY   CLEAR     40  30  67 SE16      30.00F WCI  31
OFFUTT AFB     CLEAR     38  30  75 E13       29.99F WCI  30
MILLARD        CLEAR     38  30  72 SE6       30.00F WCI  34
LINCOLN        CLEAR     43  30  60 SE12      29.98F
NEBRASKA CITY  CLEAR     40  27  60 SE14      30.00F WCI  32
BEATRICE       CLEAR     43  31  62 SE8       29.97S
FALLS CITY     CLEAR     38  30  73 SE8       30.02F WCI  32

...NORTHERN KANSAS...

CITY           SKY/WX    TMP DP  RH WIND       PRES   REMARKS
GOODLAND       MOCLDY    34  27  75 CALM      29.93F
HILL CITY      PTCLDY    44  27  51 W6        29.91F
NORTON         CLEAR     39  27  60 S5        29.89S
PHILLIPSBURG   CLEAR     37  30  75 CALM      29.90F
SMITH CENTER   CLEAR     43  32  65 E10       29.90S
BELOIT         CLEAR     45  34  65 CALM      29.90S
HAYS           PTCLDY    54  28  37 SW9       29.93S
RUSSELL        PTCLDY    50  32  50 SW10      29.91S
CONCORDIA      CLEAR     45  34  65 SE8       29.91F
SALINA         CLEAR     50  36  58 S7        29.92S
TOPEKA         CLEAR     45  31  58 E10       30.03F



USA.gov is the U.S. government's official web portal to all federal, state and local government web resources and services.